カタログに戻る

STARLINK-37277

運用中通信SSO
NORAD 68751·PAYLOAD·🇺🇸 United States

打ち上げ Apr 15, 2026 から Vandenberg Space Force Base

Loading…

次のパス (今後24時間)

TLE

最新Source: CelesTrak SupGP

元期: Sep 14, 2026, 23:28 UTC

1 68751C 26082Z   26257.97826389  .00080527  00000+0  25001-2 0  2577
2 68751  97.2845 120.2379 0001970  94.8154 178.4125 15.33392410    16

AllMySatでSTARLINK-37277をリアルタイム追跡

Download on the App Store